TimePDT,TemperatureF,Dew PointF,Humidity,Sea Level PressureIn,VisibilityMPH,Wind Direction,Wind SpeedMPH,Gust SpeedMPH,PrecipitationIn,Events,Conditions,WindDirDegrees,DateUTC
12:52 AM,60.1,23.0,24,29.89,10.0,NNW,5.8,-,N/A,,Clear,340,2012-11-01 07:52:00
1:52 AM,57.0,21.0,25,29.89,10.0,North,8.1,-,N/A,,Clear,360,2012-11-01 08:52:00
2:52 AM,55.9,21.9,27,29.89,10.0,North,4.6,-,N/A,,Clear,360,2012-11-01 09:52:00
3:52 AM,55.0,23.0,29,29.88,10.0,North,3.5,-,N/A,,Clear,350,2012-11-01 10:52:00
4:52 AM,55.0,23.0,29,29.88,10.0,NNW,8.1,-,N/A,,Clear,330,2012-11-01 11:52:00
5:52 AM,55.9,25.0,30,29.89,10.0,NNW,5.8,-,N/A,,Clear,330,2012-11-01 12:52:00
6:52 AM,51.1,27.0,39,29.90,10.0,Calm,Calm,-,N/A,,Clear,0,2012-11-01 13:52:00
7:52 AM,55.9,26.1,32,29.92,10.0,Calm,Calm,-,N/A,,Clear,0,2012-11-01 14:52:00
8:52 AM,62.1,30.0,30,29.93,10.0,SSW,3.5,-,N/A,,Clear,210,2012-11-01 15:52:00
9:52 AM,68.0,30.9,25,29.94,10.0,South,4.6,-,N/A,,Clear,180,2012-11-01 16:52:00
10:52 AM,70.0,36.0,29,29.94,10.0,SE,3.5,-,N/A,,Clear,130,2012-11-01 17:52:00
11:52 AM,75.9,35.1,23,29.91,10.0,Calm,Calm,-,N/A,,Clear,0,2012-11-01 18:52:00
12:52 PM,80.1,35.1,20,29.88,10.0,South,4.6,-,N/A,,Clear,170,2012-11-01 19:52:00
1:52 PM,84.0,33.1,16,29.85,10.0,South,4.6,-,N/A,,Clear,190,2012-11-01 20:52:00
2:52 PM,87.1,28.9,12,29.83,10.0,South,6.9,-,N/A,,Clear,170,2012-11-01 21:52:00
3:52 PM,87.1,30.9,13,29.81,10.0,South,4.6,-,N/A,,Clear,190,2012-11-01 22:52:00
4:52 PM,88.0,30.0,12,29.81,10.0,Variable,4.6,-,N/A,,Clear,0,2012-11-01 23:52:00
5:52 PM,82.9,33.1,17,29.81,10.0,South,6.9,-,N/A,,Clear,180,2012-11-02 00:52:00
6:52 PM,81.0,27.0,14,29.82,10.0,SSW,9.2,-,N/A,,Clear,200,2012-11-02 01:52:00
7:52 PM,79.0,27.0,15,29.82,10.0,SSW,6.9,-,N/A,,Clear,210,2012-11-02 02:52:00
8:52 PM,75.9,26.1,16,29.83,10.0,West,4.6,-,N/A,,Clear,280,2012-11-02 03:52:00
9:52 PM,73.0,28.0,19,29.83,10.0,Calm,Calm,-,N/A,,Clear,0,2012-11-02 04:52:00
10:52 PM,73.9,28.9,19,29.84,10.0,Calm,Calm,-,N/A,,Clear,0,2012-11-02 05:52:00